Torna al catalogo

STARLINK-30581

AttivoComunicazioniVLEO
NORAD 58096·PAYLOAD·🇺🇸 United States

Lanciato Oct 18, 2023 da Cape Canaveral Space Force Station

Loading…

Prossimi Passaggi (prossime 24 ore)

TLE

AggiornatoSource: CelesTrak SupGP

Epoca: Sep 15, 2026, 03:03 UTC

1 58096C 23160X   26258.12756944  .00000717  00000+0  25969-4 0  2588
2 58096  43.0020  88.1326 0001521 259.2482 210.0257 15.27561660    15

Traccia STARLINK-30581 in tempo reale con AllMySat

Download on the App Store